DW9210 Weather Reports


time (UTC)temp
C
wind
direction
speed
KPH
gust
KPH
rain 1hr
cm
rain 24hr
cm
rain mn
cm
humidity
%
barometer
mb
20260901160503 32 269 6.4 14.5 0.00 0.00 0.00 64 1017.5
20260901160024 31 271 8.0 14.5 0.00 0.00 0.00 69 1017.5
20260901155524 31 263 8.0 16.1 0.00 0.00 0.00 65 1017.6
20260901155003 31 253 6.4 16.1 0.00 0.00 0.00 66 1017.6
20260901154503 31 259 6.4 16.1 0.00 0.00 0.00 65 1017.7
20260901154003 31 268 6.4 12.9 0.00 0.00 0.00 65 1017.6
20260901153503 31 266 6.4 14.5 0.00 0.00 0.00 69 1017.7
20260901153003 31 261 8.0 14.5 0.00 0.00 0.00 66 1017.7
20260901152524 31 263 8.0 16.1 0.00 0.00 0.00 65 1017.8
20260901152003 31 265 8.0 16.1 0.00 0.00 0.00 67 1017.8
20260901151503 31 267 6.4 14.5 0.00 0.00 0.00 66 1017.7
20260901151003 31 269 6.4 12.9 0.00 0.00 0.00 71 1017.8
20260901150503 31 264 8.0 16.1 0.00 0.00 0.00 67 1017.7
20260901150003 30 262 6.4 16.1 0.00 0.00 0.00 68 1017.7
20260901145503 30 256 4.8 12.9 0.00 0.00 0.00 67 1017.8
20260901145024 30 246 4.8 12.9 0.00 0.00 0.00 70 1017.8
20260901144524 30 242 4.8 12.9 0.00 0.00 0.00 70 1017.6
20260901144003 30 249 3.2 11.3 0.00 0.00 0.00 75 1017.6
20260901143524 30 258 1.6 11.3 0.00 0.00 0.00 70 1017.6
20260901143003 30 0 0.0 0.0 0.00 0.00 0.00 72 1017.6
20260901142503 29 0 0.0 0.0 0.00 0.00 0.00 73 1017.7
20260901142024 29 0 0.0 0.0 0.00 0.00 0.00 76 1017.7
20260901141524 28 0 0.0 0.0 0.00 0.00 0.00 77 1017.7
20260901141003 28 0 0.0 0.0 0.00 0.00 0.00 78 1017.7
20260901140503 28 0 0.0 0.0 0.00 0.00 0.00 77 1017.8
20260901140003 28 0 0.0 0.0 0.00 0.00 0.00 79 1017.8
20260901135503 27 0 0.0 0.0 0.00 0.00 0.00 81 1017.8
20260901135003 27 0 0.0 0.0 0.00 0.00 0.00 80 1017.8
20260901134503 27 0 0.0 0.0 0.00 0.00 0.00 80 1017.8
20260901134003 27 0 0.0 0.0 0.00 0.00 0.00 82 1017.9
20260901133503 27 0 0.0 0.0 0.00 0.00 0.00 82 1017.9
20260901133003 27 0 0.0 0.0 0.00 0.00 0.00 81 1017.9
20260901132503 26 0 0.0 0.0 0.00 0.00 0.00 83 1017.8
20260901132003 26 0 0.0 0.0 0.00 0.00 0.00 84 1017.8
20260901131503 26 0 0.0 0.0 0.00 0.00 0.00 85 1017.8
20260901131003 26 0 0.0 0.0 0.00 0.00 0.00 85 1017.8
20260901130503 25 0 0.0 0.0 0.00 0.00 0.00 86 1017.8
20260901130024 25 0 0.0 0.0 0.00 0.00 0.00 88 1017.9
20260901125503 25 0 0.0 0.0 0.00 0.00 0.00 88 1018.0
20260901125003 24 0 0.0 0.0 0.00 0.00 0.00 91 1018.1
20260901124524 24 0 0.0 0.0 0.00 0.00 0.00 92 1018.1
20260901124003 23 0 0.0 0.0 0.00 0.00 0.00 94 1018.2
20260901123503 23 0 0.0 0.0 0.00 0.00 0.00 94 1018.2
20260901123024 22 0 0.0 0.0 0.00 0.00 0.00 95 1018.2
20260901122503 22 0 0.0 0.0 0.00 0.00 0.00 96 1018.1
20260901122003 22 0 0.0 0.0 0.00 0.00 0.00 98 1018.1
20260901121524 22 0 0.0 0.0 0.00 0.00 0.00 98 1018.2
20260901121003 21 0 0.0 0.0 0.00 0.00 0.00 98 1018.1
20260901120503 21 0 0.0 0.0 0.00 0.00 0.00 98 1017.9
20260901120003 20 0 0.0 0.0 0.00 0.00 0.00 98 1017.9
20260901115503 20 0 0.0 0.0 0.00 0.00 0.00 98 1017.8
20260901115003 20 0 0.0 0.0 0.00 0.00 0.00 98 1017.7
20260901114503 19 0 0.0 0.0 0.00 0.00 0.00 98 1017.7
20260901114003 19 0 0.0 0.0 0.00 0.00 0.00 97 1017.6
20260901113503 19 0 0.0 0.0 0.00 0.00 0.00 97 1017.5
20260901113003 18 0 0.0 0.0 0.00 0.00 0.00 97 1017.5
20260901112524 18 0 0.0 0.0 0.00 0.00 0.00 97 1017.4
20260901112003 18 0 0.0 0.0 0.00 0.00 0.00 97 1017.3
20260901111503 18 0 0.0 0.0 0.00 0.00 0.00 97 1017.3
20260901111024 18 0 0.0 0.0 0.00 0.00 0.00 97 1017.3
20260901110503 18 0 0.0 0.0 0.00 0.00 0.00 97 1017.2
20260901110003 18 0 0.0 0.0 0.00 0.00 0.00 97 1017.1
20260901105503 19 0 0.0 0.0 0.00 0.00 0.00 97 1017.1
20260901105003 19 0 0.0 0.0 0.00 0.00 0.00 97 1017.1
20260901104503 19 0 0.0 0.0 0.00 0.00 0.00 97 1017.0
20260901104003 18 0 0.0 0.0 0.00 0.00 0.00 97 1016.9
20260901103503 18 0 0.0 0.0 0.00 0.00 0.00 97 1016.9
20260901103003 18 0 0.0 0.0 0.00 0.00 0.00 96 1016.8
20260901102503 18 0 0.0 0.0 0.00 0.00 0.00 96 1016.8
20260901102003 19 0 0.0 0.0 0.00 0.00 0.00 96 1016.8
20260901101503 19 0 0.0 0.0 0.00 0.00 0.00 97 1016.7
20260901101003 19 0 0.0 0.0 0.00 0.00 0.00 97 1016.6
20260901100503 19 0 0.0 0.0 0.00 0.00 0.00 96 1016.6
20260901100003 20 0 0.0 0.0 0.00 0.00 0.00 97 1016.6
20260901095503 20 0 0.0 0.0 0.00 0.00 0.00 97 1016.6
20260901095003 19 0 0.0 0.0 0.00 0.00 0.00 97 1016.6
20260901094524 19 0 0.0 0.0 0.00 0.00 0.00 97 1016.6
20260901094003 19 0 0.0 0.0 0.00 0.00 0.00 96 1016.4
20260901093524 20 0 0.0 0.0 0.00 0.00 0.00 97 1016.4
20260901093003 20 0 0.0 0.0 0.00 0.00 0.00 97 1016.3
20260901092503 20 0 0.0 0.0 0.00 0.00 0.00 97 1016.2
20260901092003 19 0 0.0 0.0 0.00 0.00 0.00 96 1016.2
20260901091503 20 0 0.0 0.0 0.00 0.00 0.00 96 1016.1
20260901091003 20 0 0.0 0.0 0.00 0.00 0.00 97 1016.1
20260901090503 20 0 0.0 0.0 0.00 0.00 0.00 97 1015.9
20260901090003 20 0 0.0 0.0 0.00 0.00 0.00 97 1015.8
20260901085524 20 0 0.0 0.0 0.00 0.00 0.00 97 1015.8
20260901085003 20 0 0.0 0.0 0.00 0.00 0.00 97 1015.7
20260901084503 19 0 0.0 0.0 0.00 0.00 0.00 97 1015.7
20260901084003 19 0 0.0 0.0 0.00 0.00 0.00 96 1015.6
20260901083503 19 0 0.0 0.0 0.00 0.00 0.00 96 1015.7
20260901083003 19 0 0.0 0.0 0.00 0.00 0.00 96 1015.6
20260901082524 20 0 0.0 0.0 0.00 0.00 0.00 96 1015.6
20260901082003 20 0 0.0 0.0 0.00 0.00 0.00 96 1015.5
20260901081503 20 0 0.0 0.0 0.00 0.00 0.00 96 1015.4
20260901081003 20 0 0.0 0.0 0.00 0.00 0.00 96 1015.4
20260901080503 20 0 0.0 0.0 0.00 0.00 0.00 97 1015.4
20260901080024 20 0 0.0 0.0 0.00 0.00 0.00 97 1015.4
20260901075524 20 0 0.0 0.0 0.00 0.00 0.00 97 1015.4
20260901075003 20 0 0.0 0.0 0.00 0.00 0.00 97 1015.4
20260901074524 20 0 0.0 0.0 0.00 0.00 0.00 96 1015.4
20260901074003 20 0 0.0 0.0 0.00 0.00 0.00 96 1015.4
20260901073503 20 0 0.0 0.0 0.00 0.00 0.00 96 1015.4
20260901073003 20 0 0.0 0.0 0.00 0.00 0.00 96 1015.6
20260901072503 20 0 0.0 0.0 0.00 0.00 0.00 96 1015.5
20260901072003 20 0 0.0 0.0 0.00 0.00 0.00 96 1015.5
20260901071524 20 0 0.0 0.0 0.00 0.00 0.00 96 1015.6
20260901071024 20 0 0.0 0.0 0.00 0.00 0.00 96 1015.6
20260901070503 20 0 0.0 0.0 0.00 0.00 0.00 96 1015.7
20260901070003 20 0 0.0 0.0 0.00 0.00 0.00 96 1015.8
20260901065524 20 0 0.0 0.0 0.00 0.00 0.00 96 1015.7
20260901065003 20 0 0.0 0.0 0.00 0.00 0.00 95 1015.8
20260901064503 20 0 0.0 0.0 0.00 0.00 0.00 95 1015.8
20260901064003 20 0 0.0 0.0 0.00 0.00 0.00 96 1015.8
20260901063503 20 0 0.0 0.0 0.00 0.00 0.00 96 1015.9
20260901063003 20 0 0.0 0.0 0.00 0.00 0.00 96 1016.0
20260901062503 20 0 0.0 0.0 0.00 0.00 0.00 96 1016.1
20260901062024 20 0 0.0 0.0 0.00 0.00 0.00 96 1016.2
20260901061503 20 0 0.0 0.0 0.00 0.00 0.00 96 1016.2
20260901061003 20 0 0.0 0.0 0.00 0.00 0.00 96 1016.3
20260901060503 20 0 0.0 0.0 0.00 0.00 0.00 96 1016.3
20260901060003 20 0 0.0 0.0 0.00 0.00 0.00 96 1016.3
20260901055524 20 0 0.0 0.0 0.00 0.00 0.00 96 1016.4
20260901055003 20 0 0.0 0.0 0.00 0.00 0.00 95 1016.4
20260901054503 20 0 0.0 0.0 0.00 0.00 0.00 95 1016.4
20260901054003 21 0 0.0 0.0 0.00 0.00 0.00 95 1016.6
20260901053524 21 0 0.0 0.0 0.00 0.00 0.00 96 1016.5
20260901053003 21 0 0.0 0.0 0.00 0.00 0.00 95 1016.5
20260901052503 21 0 0.0 0.0 0.00 0.00 0.00 95 1016.7
20260901052003 21 0 0.0 0.0 0.00 0.00 0.00 95 1016.6
20260901051524 21 0 0.0 0.0 0.00 0.00 0.00 95 1016.6
20260901051003 21 0 0.0 0.0 0.00 0.00 0.00 96 1016.7
20260901050503 21 0 0.0 0.0 0.00 0.00 0.00 96 1016.6
20260901050003 21 0 0.0 0.0 0.00 0.00 0.00 95 1016.6
20260901045503 21 0 0.0 0.0 0.00 0.00 0.00 95 1016.6
20260901045003 21 0 0.0 0.0 0.00 0.00 0.00 95 1016.6
20260901044505 21 0 0.0 0.0 0.00 0.00 0.00 96 1016.7
20260901044003 21 0 0.0 0.0 0.00 0.00 0.00 95 1016.8
20260901043524 21 0 0.0 0.0 0.00 0.00 0.00 95 1016.9
20260901043003 21 0 0.0 0.0 0.00 0.00 0.00 95 1016.8
20260901042524 21 0 0.0 0.0 0.00 0.00 0.00 95 1016.7
20260901042003 21 0 0.0 0.0 0.00 0.00 0.00 95 1016.7
20260901041503 21 0 0.0 0.0 0.00 0.00 0.00 95 1016.7
20260901041024 21 0 0.0 0.0 0.00 0.00 0.00 95 1016.6
20260901040524 21 0 0.0 0.0 0.00 0.00 0.00 95 1016.6
20260901040024 21 0 0.0 0.0 0.00 0.00 0.00 95 1016.6
20260901035503 21 0 0.0 0.0 0.00 0.00 0.00 95 1016.6
20260901035003 21 0 0.0 0.0 0.00 0.00 0.00 94 1016.7
20260901034503 21 0 0.0 0.0 0.00 0.00 0.00 94 1016.7
20260901034024 22 0 0.0 0.0 0.00 0.00 0.00 94 1016.6
20260901033503 22 0 0.0 0.0 0.00 0.00 0.00 94 1016.6
20260901033003 22 0 0.0 0.0 0.00 0.00 0.00 94 1016.6
20260901032503 22 0 0.0 0.0 0.00 0.00 0.00 94 1016.6
20260901032003 22 0 0.0 0.0 0.00 0.00 0.00 94 1016.6
20260901031503 22 0 0.0 0.0 0.00 0.00 0.00 94 1016.6
20260901031003 22 0 0.0 0.0 0.00 0.00 0.00 93 1016.5
20260901030503 22 0 0.0 0.0 0.00 0.00 0.00 93 1016.4
20260901030024 22 0 0.0 0.0 0.00 0.00 0.00 93 1016.5
20260901025524 22 0 0.0 0.0 0.00 0.00 0.00 93 1016.6
20260901025003 22 0 0.0 0.0 0.00 0.00 0.00 93 1016.5
20260901024503 22 0 0.0 0.0 0.00 0.00 0.00 93 1016.5
20260901024003 22 0 0.0 0.0 0.00 0.00 0.00 93 1016.5
20260901023503 22 0 0.0 0.0 0.00 0.00 0.00 93 1016.5
20260901023003 22 0 0.0 0.0 0.00 0.00 0.00 93 1016.5
20260901022524 22 0 0.0 0.0 0.00 0.00 0.00 93 1016.5
20260901022024 23 0 0.0 0.0 0.00 0.00 0.00 92 1016.5
20260901021503 23 0 0.0 0.0 0.00 0.00 0.00 92 1016.5
20260901021003 23 0 0.0 0.0 0.00 0.00 0.00 92 1016.4
20260901020503 23 0 0.0 0.0 0.00 0.00 0.00 92 1016.3
20260901020024 23 0 0.0 0.0 0.00 0.00 0.00 91 1016.3
20260901015503 23 0 0.0 0.0 0.00 0.00 0.00 91 1016.3
20260901015003 23 0 0.0 0.0 0.00 0.00 0.00 91 1016.1
20260901014503 23 0 0.0 0.0 0.00 0.00 0.00 91 1016.0
20260901014003 23 0 0.0 0.0 0.00 0.00 0.00 91 1016.0
20260901013503 23 0 0.0 0.0 0.00 0.00 0.00 90 1016.0
20260901013003 24 0 0.0 0.0 0.00 0.00 0.00 89 1016.0
20260901012503 24 0 0.0 0.0 0.00 0.00 0.00 88 1015.8
20260901012024 24 0 0.0 0.0 0.00 0.00 0.00 87 1015.6
20260901011503 25 0 0.0 0.0 0.00 0.00 0.00 87 1015.6
20260901011024 25 0 0.0 0.0 0.00 0.00 0.00 86 1015.5
20260901010503 25 0 0.0 0.0 0.00 0.00 0.00 85 1015.5
20260901010003 25 0 0.0 0.0 0.00 0.00 0.00 84 1015.4
20260901005524 25 0 0.0 0.0 0.00 0.00 0.00 83 1015.4
20260901005003 26 0 0.0 0.0 0.00 0.00 0.00 82 1015.4
20260901004503 26 0 0.0 0.0 0.00 0.00 0.00 81 1015.3
20260901004003 26 0 0.0 0.0 0.00 0.00 0.00 79 1015.2
20260901003503 26 0 0.0 0.0 0.00 0.00 0.00 78 1015.2
20260901003003 27 0 0.0 0.0 0.00 0.00 0.00 78 1015.2
20260901002503 27 212 0.0 1.6 0.00 0.00 0.00 77 1015.2
20260901002003 27 212 0.0 1.6 0.00 0.00 0.00 76 1015.1
20260901001503 27 205 0.0 3.2 0.00 0.00 0.00 75 1015.1
20260901001003 28 195 0.0 3.2 0.00 0.00 0.00 75 1015.2
20260901000503 28 196 0.0 3.2 0.00 0.00 0.00 73 1015.3
20260901000003 28 202 0.0 1.6 0.00 0.00 0.00 72 1015.2
20260831235503 29 203 0.0 3.2 0.00 0.00 0.00 71 1015.3
20260831235003 30 203 0.0 3.2 0.00 0.00 0.00 70 1015.3
20260831234503 30 210 0.0 1.6 0.00 0.00 0.00 68 1015.3
20260831234024 30 220 0.0 3.2 0.00 0.00 0.00 67 1015.3
20260831233503 31 210 0.0 3.2 0.00 0.00 0.00 64 1015.3
20260831233003 31 202 0.0 4.8 0.00 0.00 0.00 64 1015.3
20260831232503 32 214 1.6 4.8 0.00 0.00 0.00 60 1015.3
20260831232003 32 216 1.6 4.8 0.00 0.00 0.00 58 1015.4
20260831231503 32 214 1.6 4.8 0.00 0.00 0.00 56 1015.4
20260831231003 33 228 1.6 3.2 0.00 0.00 0.00 57 1015.5
20260831230503 33 241 1.6 4.8 0.00 0.00 0.00 56 1015.5
20260831230003 33 230 1.6 6.4 0.00 0.00 0.00 54 1015.5
20260831225503 33 232 1.6 6.4 0.00 0.00 0.00 55 1015.6
20260831225024 33 231 1.6 6.4 0.00 0.00 0.00 53 1015.7
20260831224503 33 226 3.2 6.4 0.00 0.00 0.00 53 1015.7
20260831224024 33 239 1.6 6.4 0.00 0.00 0.00 53 1015.7
20260831223503 33 246 1.6 6.4 0.00 0.00 0.00 54 1015.7
20260831223024 33 243 3.2 6.4 0.00 0.00 0.00 54 1015.8
20260831222503 33 248 3.2 8.0 0.00 0.00 0.00 52 1015.8
20260831222003 33 247 3.2 8.0 0.00 0.00 0.00 52 1015.8
20260831221503 34 234 3.2 8.0 0.00 0.00 0.00 50 1015.8
20260831221003 34 223 3.2 8.0 0.00 0.00 0.00 50 1015.8
20260831220503 34 229 1.6 8.0 0.00 0.00 0.00 52 1015.9
20260831220003 34 245 1.6 8.0 0.00 0.00 0.00 54 1015.9
20260831215524 34 248 1.6 6.4 0.00 0.00 0.00 54 1015.9
20260831215003 34 243 3.2 6.4 0.00 0.00 0.00 55 1015.9
20260831214503 34 248 3.2 6.4 0.00 0.00 0.00 56 1016.0
20260831214003 33 258 3.2 9.7 0.00 0.00 0.00 54 1016.1
20260831213503 34 269 4.8 14.5 0.00 0.00 0.00 56 1016.1
20260831213003 34 266 3.2 14.5 0.00 0.00 0.00 52 1016.2
20260831212524 34 250 1.6 6.4 0.00 0.00 0.00 53 1016.1
20260831212003 34 271 1.6 6.4 0.00 0.00 0.00 55 1016.2
20260831211503 34 294 1.6 4.8 0.00 0.00 0.00 53 1016.3
20260831211003 34 272 3.2 8.0 0.00 0.00 0.00 53 1016.3
20260831210503 34 257 3.2 8.0 0.00 0.00 0.00 55 1016.3
20260831210003 34 238 3.2 8.0 0.00 0.00 0.00 56 1016.3
20260831205503 33 244 3.2 8.0 0.00 0.00 0.00 54 1016.4
20260831205003 33 252 3.2 8.0 0.00 0.00 0.00 58 1016.4
20260831204503 33 257 4.8 12.9 0.00 0.00 0.00 57 1016.4
20260831204003 33 258 4.8 12.9 0.00 0.00 0.00 55 1016.5
20260831203503 33 253 3.2 9.7 0.00 0.00 0.00 56 1016.5
20260831203003 33 249 1.6 6.4 0.00 0.00 0.00 62 1016.6
20260831202524 33 243 3.2 8.0 0.00 0.00 0.00 57 1016.6
20260831202003 33 247 3.2 9.7 0.00 0.00 0.00 55 1016.7
20260831201524 33 261 3.2 9.7 0.00 0.00 0.00 57 1016.8
20260831201003 33 257 3.2 9.7 0.00 0.00 0.00 57 1016.8
20260831200524 33 238 1.6 9.7 0.00 0.00 0.00 57 1016.9
20260831200003 32 246 3.2 8.0 0.00 0.00 0.00 59 1017.1
20260831195503 32 258 3.2 8.0 0.00 0.00 0.00 57 1017.1
20260831195003 33 259 3.2 11.3 0.00 0.00 0.00 59 1017.1
20260831194503 33 255 3.2 11.3 0.00 0.00 0.00 59 1017.1
20260831194003 33 259 1.6 4.8 0.00 0.00 0.00 56 1017.1
20260831193503 33 243 1.6 9.7 0.00 0.00 0.00 60 1017.2
20260831193003 33 252 3.2 9.7 0.00 0.00 0.00 57 1017.2
20260831192524 33 263 4.8 11.3 0.00 0.00 0.00 59 1017.3
20260831192003 33 254 6.4 16.1 0.00 0.00 0.00 57 1017.3
20260831191503 33 243 4.8 16.1 0.00 0.00 0.00 58 1017.4
20260831191003 33 266 4.8 14.5 0.00 0.00 0.00 59 1017.4
20260831190503 33 278 4.8 14.5 0.00 0.00 0.00 58 1017.5
20260831190003 33 274 4.8 9.7 0.00 0.00 0.00 62 1017.5
20260831185503 32 266 4.8 9.7 0.00 0.00 0.00 61 1017.6
20260831185003 33 268 4.8 9.7 0.00 0.00 0.00 61 1017.6
20260831184503 32 261 6.4 12.9 0.00 0.00 0.00 59 1017.6
20260831184003 32 267 8.0 16.1 0.00 0.00 0.00 59 1017.7
20260831183503 32 273 8.0 16.1 0.00 0.00 0.00 57 1017.7
20260831183024 32 261 6.4 11.3 0.00 0.00 0.00 64 1017.6
20260831182503 32 242 4.8 12.9 0.00 0.00 0.00 58 1017.7
20260831182003 32 246 3.2 12.9 0.00 0.00 0.00 62 1017.7
20260831181503 32 251 3.2 9.7 0.00 0.00 0.00 64 1017.8
20260831181003 32 238 3.2 17.7 0.00 0.00 0.00 62 1017.8
20260831180503 32 255 6.4 17.7 0.00 0.00 0.00 59 1017.8
20260831180003 32 258 6.4 16.1 0.00 0.00 0.00 62 1017.8
20260831175503 32 244 4.8 12.9 0.00 0.00 0.00 62 1017.9
20260831175003 32 257 6.4 12.9 0.00 0.00 0.00 59 1017.9
20260831174503 32 263 6.4 12.9 0.00 0.00 0.00 61 1017.9
20260831174003 32 272 4.8 12.9 0.00 0.00 0.00 61 1017.9
20260831173503 32 279 6.4 12.9 0.00 0.00 0.00 65 1018.1
20260831173003 32 275 8.0 16.1 0.00 0.00 0.00 64 1018.1
20260831172503 32 266 8.0 16.1 0.00 0.00 0.00 59 1018.1
20260831172003 32 262 8.0 14.5 0.00 0.00 0.00 66 1018.1
20260831171503 32 266 6.4 14.5 0.00 0.00 0.00 62 1018.1
20260831171003 32 263 6.4 14.5 0.00 0.00 0.00 63 1018.2
20260831170503 32 244 6.4 17.7 0.00 0.00 0.00 65 1018.2
20260831170024 32 231 6.4 17.7 0.00 0.00 0.00 64 1018.2
20260831165503 32 229 6.4 17.7 0.00 0.00 0.00 64 1018.3
20260831165003 32 230 6.4 16.1 0.00 0.00 0.00 64 1018.3
20260831164503 32 233 8.0 17.7 0.00 0.00 0.00 62 1018.3
20260831164003 32 233 6.4 17.7 0.00 0.00 0.00 65 1018.4
20260831163503 31 233 6.4 19.3 0.00 0.00 0.00 66 1018.3
20260831163003 31 242 6.4 19.3 0.00 0.00 0.00 65 1018.4
20260831162503 31 244 8.0 14.5 0.00 0.00 0.00 67 1018.5
20260831162024 31 237 6.4 14.5 0.00 0.00 0.00 67 1018.5
20260831161503 31 245 4.8 14.5 0.00 0.00 0.00 67 1018.4
20260831161003 31 246 6.4 16.1 0.00 0.00 0.00 69 1018.5